date,time,DOY,Ta_1_1_1,RH_1_1_1,LWin_1_1_1,LWout_1_1_1,SWin_1_1_1,SWout_1_1_1,PPFD_1_1_1,SWC_1_1_1,Ts_1_1_1
[yyyy-mm-dd],[HH:MM],[ddd.ddd],[K],[%],[W+1m-2],[W+1m-2],[W+1m-2],[W+1m-2],[µmol+1m-2s-1],[m+3m-3],[K]
2012-08-22,00:30,235.020,288.29482758620691,71.428620689655162,-9999.0,-9999.0,0.39137931034482770,-3.7127586206896557,2.75862068965517264E-003,0.20999999999999999,287.51482758620693
2012-08-22,01:00,235.041,287.75333333333333,74.010333333333335,-9.8180000000000014,-9999.0,0.27600000000000002,-3.7843333333333344,2.33333333333333353E-003,0.20999999999999999,287.43099999999993
2012-08-22,01:30,235.062,287.73066666666671,72.857333333333344,-9.7333333333333343,-9999.0,0.41499999999999998,-3.4886666666666661,5.99999999999999926E-003,0.20999999999999999,287.35200000000003
2012-08-22,02:00,235.083,287.65966666666662,72.480999999999995,-9.8916666666666657,-9999.0,0.41766666666666669,-3.5339999999999994,3.66666666666666616E-003,0.20999999999999999,287.27866666666677
2012-08-22,02:30,235.104,287.49966666666671,73.105999999999995,-9.9499999999999993,-9999.0,0.29700000000000004,-3.5169999999999990,4.66666666666666705E-003,0.20366666666666677,287.21299999999997
2012-08-22,03:00,235.124,287.17033333333336,74.777000000000001,-9.8799999999999990,-9999.0,6.06666666666666604E-002,-3.1330000000000000,5.00000000000000097E-003,0.20000000000000009,287.12466666666671
2012-08-22,03:30,235.145,286.90066666666667,76.548999999999978,-9.8819999999999997,-9999.0,4.96666666666666645E-002,-3.2196666666666669,4.00000000000000008E-003,0.20000000000000009,287.04566666666676
2012-08-22,04:00,235.166,286.68600000000004,77.989000000000004,-9.6558333333333337,-9999.0,0.20200000000000001,-3.2339999999999991,4.66666666666666619E-003,0.20000000000000009,286.95966666666664
2012-08-22,04:30,235.187,286.80166666666668,76.593666666666664,-9.5481818181818170,-9999.0,0.46999999999999997,-2.9376666666666673,9.33333333333333411E-003,0.20000000000000009,286.87099999999998
2012-08-22,05:00,235.208,286.95766666666663,74.753666666666675,-9.8407692307692294,-9999.0,0.41000000000000009,-2.8366666666666664,0.91066666666666662,0.20000000000000009,286.78933333333339
2012-08-22,05:30,235.229,286.79266666666678,75.457000000000008,-9.8258333333333319,-9999.0,2.1946666666666670,8.0086666666666666,22.399666666666668,0.20000000000000009,286.72966666666667
2012-08-22,06:00,235.249,286.88000000000005,75.561000000000007,-9999.0,-9999.0,11.641333333333336,61.272999999999989,108.42033333333335,0.20000000000000009,286.67599999999999
2012-08-22,06:30,235.270,287.49700000000001,72.346333333333348,-9999.0,-9999.0,23.136666666666667,138.14300000000000,245.84933333333336,0.20000000000000009,286.63433333333330
2012-08-22,07:00,235.291,288.48533333333336,67.890000000000001,-9.9900000000000002,-9999.0,35.660666666666671,225.00633333333334,414.06433333333337,0.20000000000000009,286.65266666666668
2012-08-22,07:30,235.312,289.72199999999998,62.320000000000014,-9999.0,-9999.0,48.420000000000002,313.91699999999997,594.34499999999991,0.20000000000000009,286.77166666666670
2012-08-22,08:00,235.333,290.77200000000005,59.364666666666672,-9999.0,-9999.0,61.697333333333326,405.36766666666671,783.77733333333322,0.20000000000000009,286.99300000000005
2012-08-22,08:30,235.354,291.86833333333328,56.310666666666677,-9.8557142857142868,-9999.0,73.306000000000012,490.43299999999988,958.70666666666671,0.20000000000000009,287.27466666666675
2012-08-22,09:00,235.374,292.89766666666668,55.071666666666665,-9.8060000000000009,-9999.0,84.505666666666656,569.25733333333335,1124.8086666666666,0.20000000000000009,287.61900000000003
2012-08-22,09:30,235.395,293.61500000000007,53.005333333333326,-8.5576666666666679,-9999.0,94.556333333333299,641.81333333333328,1274.3543333333337,0.20000000000000009,287.99266666666671
2012-08-22,10:00,235.416,294.59500000000008,51.123999999999988,-8.8703846153846158,-9999.0,103.51199999999999,705.26666666666654,1411.0073333333332,0.20000000000000009,288.45433333333335
2012-08-22,10:30,235.437,295.28033333333337,49.783333333333310,-8.7476923076923079,-9999.0,109.32333333333334,757.58833333333314,1524.9833333333336,0.20000000000000009,288.95766666666674
2012-08-22,11:00,235.458,295.63866666666667,48.380666666666663,-7.6706666666666674,-9999.0,113.52100000000003,788.02333333333343,1591.7526666666668,0.20000000000000009,289.78100000000001
2012-08-22,11:30,235.479,296.09133333333341,47.121666666666670,-7.0913333333333339,-9999.0,118.98266666666665,823.96533333333332,1668.8889999999999,0.20000000000000009,290.50100000000020
2012-08-22,12:00,235.499,296.57633333333337,46.270000000000003,-7.4220689655172425,-9999.0,120.66500000000002,839.12499999999989,1703.6063333333334,0.20000000000000009,290.55366666666669
2012-08-22,12:30,235.520,296.96466666666674,45.402000000000001,-7.2893333333333334,-9999.0,124.58166666666666,835.11833333333334,1698.5273333333332,0.20000000000000009,290.71699999999998
2012-08-22,13:00,235.541,297.43299999999999,44.144333333333336,-8.9696428571428566,-9999.0,116.52766666666665,817.68266666666693,1668.4696666666666,0.20000000000000009,290.91733333333337
2012-08-22,13:30,235.562,297.59766666666673,42.109666666666676,-8.3466666666666676,-9999.0,113.84866666666670,790.52533333333315,1609.2113333333334,0.20000000000000009,291.00633333333343
2012-08-22,14:00,235.583,297.81300000000005,42.310666666666663,-8.4769999999999985,-9999.0,110.64000000000001,749.57966666666664,1523.4123333333332,0.20000000000000009,291.07166666666672
2012-08-22,14:30,235.604,298.14333333333337,39.590999999999994,-8.9648000000000003,-9999.0,106.16033333333334,698.62966666666682,1415.8496666666663,0.20000000000000009,291.21166666666676
2012-08-22,15:00,235.624,298.55166666666679,38.916666666666664,-9.2241666666666671,-9999.0,98.512999999999991,636.89666666666665,1289.2760000000001,0.20000000000000009,291.27733333333339
2012-08-22,15:30,235.645,298.87033333333341,37.250999999999991,-9999.0,-9999.0,89.647333333333336,565.05100000000016,1139.7790000000000,0.20000000000000009,291.30633333333338
2012-08-22,16:00,235.666,299.10800000000000,38.220000000000006,-9999.0,-9999.0,80.058666666666667,484.49833333333333,974.93033333333324,0.20000000000000009,291.35699999999997
2012-08-22,16:30,235.687,299.23099999999999,38.407666666666664,-9999.0,-9999.0,68.094000000000008,397.73366666666681,797.05700000000002,0.20000000000000009,291.42400000000015
2012-08-22,17:00,235.708,299.21400000000006,37.932666666666677,-9999.0,-9999.0,55.117999999999988,308.11566666666664,612.63399999999990,0.19900000000000012,291.45300000000003
2012-08-22,17:30,235.729,299.05766666666671,37.693999999999996,-9999.0,-9999.0,42.187333333333335,216.07900000000004,427.67300000000000,0.19000000000000009,291.42699999999996
2012-08-22,18:00,235.749,298.66200000000009,38.584666666666656,-9999.0,-9999.0,28.765333333333334,129.96100000000001,258.24299999999999,0.19000000000000009,291.34333333333342
2012-08-22,18:30,235.770,297.93933333333337,40.859999999999999,-9999.0,-9999.0,15.897000000000000,58.571999999999967,119.96533333333332,0.19000000000000009,291.19933333333330
2012-08-22,19:00,235.791,297.23166666666663,43.275333333333336,-9999.0,-9999.0,3.5529999999999990,8.9083333333333314,27.341333333333331,0.19000000000000009,290.98866666666669
2012-08-22,19:30,235.812,296.49566666666669,46.027999999999999,-9999.0,-9999.0,-6.06666666666666604E-002,-5.1723333333333326,1.0913333333333335,0.19000000000000009,290.72700000000003
2012-08-22,20:00,235.833,295.48133333333334,49.685666666666663,-9999.0,-9999.0,-0.15766666666666662,-5.4776666666666669,7.33333333333333406E-003,0.19000000000000009,290.45099999999996
2012-08-22,20:30,235.854,294.66633333333334,53.014666666666677,-9999.0,-9999.0,-0.11133333333333334,-5.0139999999999993,2.66666666666666614E-003,0.19000000000000009,290.20133333333331
2012-08-22,21:00,235.874,294.11466666666661,55.537666666666674,-9999.0,-9999.0,-3.73333333333333156E-002,-4.5770000000000017,6.66666666666666644E-004,0.19000000000000009,289.96600000000007
2012-08-22,21:30,235.895,293.89599999999996,55.471666666666671,-9999.0,-9999.0,0.19666666666666660,-4.3649999999999993,2.99999999999999963E-003,0.19000000000000009,289.76900000000006
2012-08-22,22:00,235.916,293.32800000000003,57.186999999999983,-9999.0,-9999.0,7.36666666666666442E-002,-4.4383333333333326,0.0000000000000000,0.19000000000000009,289.61800000000005
2012-08-22,22:30,235.937,293.11633333333339,58.184999999999995,-9999.0,-9999.0,0.13966666666666669,-4.6539999999999990,2.33333333333333353E-003,0.19000000000000009,289.48333333333335
2012-08-22,23:00,235.958,292.57866666666666,62.783333333333331,-9999.0,-9999.0,-0.22233333333333341,-4.6689999999999996,3.33333333333333311E-003,0.19000000000000009,289.33633333333341
2012-08-22,23:30,235.979,291.68133333333333,65.565333333333356,-9999.0,-9999.0,-0.25266666666666660,-4.3859999999999992,2.00000000000000004E-003,0.19000000000000009,289.18433333333337
2012-08-23,00:00,236.000,291.54266666666678,64.649333333333331,-9999.0,-9999.0,-2.99999999999999616E-003,-4.0049999999999990,1.00000000000000002E-003,0.19000000000000009,289.04466666666667
